PST,Max TemperatureF,Mean TemperatureF,Min TemperatureF,Max Dew PointF,MeanDew PointF,Min DewpointF,Max Humidity, Mean Humidity, Min Humidity, Max Sea Level PressureIn, Mean Sea Level PressureIn, Min Sea Level PressureIn, Max VisibilityMiles, Mean VisibilityMiles, Min VisibilityMiles, Max Wind SpeedMPH, Mean Wind SpeedMPH, Max Gust SpeedMPH,PrecipitationIn, CloudCover, Events, WindDirDegrees
2013-1-1,46,37,28,31,30,26,92,73,53,30.46,30.38,30.33,10,7,4,8,2,10,0.00,5,,1
2013-1-2,49,36,22,31,26,19,92,69,46,30.33,30.25,30.18,10,9,5,9,0,14,0.00,0,,330
2013-1-3,48,34,20,32,25,18,92,73,53,30.35,30.21,30.13,10,7,1,7,1,8,0.00,2,,112
2013-1-4,48,36,23,32,27,21,100,79,58,30.38,30.30,30.21,10,7,0,5,0,8,0.00,1,Fog,-1
2013-1-5,42,36,29,37,33,28,100,87,73,30.24,30.19,30.14,10,5,0,8,1,9,0.06,6,Fog-Rain,352
2013-1-6,44,40,35,38,36,34,100,91,82,30.27,30.21,30.15,10,4,0,6,1,32,T,8,Fog-Rain,313
2013-1-7,44,41,37,41,38,35,100,95,89,30.32,30.28,30.23,10,5,1,6,0,7,0.06,8,Rain,20
2013-1-8,47,45,42,41,41,39,96,89,82,30.35,30.27,30.10,10,5,0,9,1,10,0.00,8,Fog,147
2013-1-9,47,41,35,43,37,31,96,82,67,30.04,29.98,29.90,10,7,2,17,4,24,0.04,7,Rain,317
2013-1-10,38,35,32,34,31,29,96,86,76,30.18,30.11,30.02,10,6,2,10,2,14,0.14,7,Rain-Snow,274
2013-1-11,41,34,26,33,29,23,92,76,60,30.30,30.22,30.16,10,9,2,10,3,13,0.02,6,Snow,279
2013-1-12,35,29,23,25,23,21,100,81,61,30.38,30.31,30.26,10,10,5,5,1,,0.00,5,,154
2013-1-13,32,27,21,22,21,18,88,76,63,30.47,30.41,30.34,10,10,8,7,1,9,0.00,5,,16
2013-1-14,40,29,18,23,19,16,91,68,44,30.58,30.53,30.48,10,8,5,5,0,6,0.00,0,,200
2013-1-15,44,33,21,28,24,18,92,74,55,30.66,30.61,30.56,10,8,5,5,0,6,0.00,0,,190
2013-1-16,31,27,22,30,26,19,100,92,84,30.67,30.58,30.48,6,1,0,5,0,8,0.01,5,Fog-Snow,165
2013-1-17,35,30,25,30,25,21,100,89,78,30.51,30.42,30.30,5,1,0,5,0,6,T,7,Fog-Snow,17
2013-1-18,43,33,22,33,24,19,100,84,67,30.41,30.33,30.27,10,2,0,3,0,5,0.00,2,Fog,13
2013-1-19,49,35,21,32,24,19,100,75,50,30.41,30.33,30.28,10,3,0,5,0,22,T,1,Fog-Snow,61
2013-1-20,49,34,19,30,22,16,100,73,46,30.40,30.34,30.25,10,3,0,5,0,8,0.00,1,Fog,170
2013-1-21,50,35,19,28,21,16,92,66,39,30.32,30.25,30.18,10,4,0,5,0,7,0.00,1,Fog,40
2013-1-22,45,33,21,31,26,19,96,75,53,30.20,30.09,29.97,10,8,5,5,0,8,0.00,0,,70
2013-1-23,59,46,33,45,38,30,100,76,51,30.12,29.96,29.83,10,8,2,31,6,37,0.07,6,Rain,159
2013-1-24,54,49,43,45,43,42,100,86,71,30.21,30.17,30.12,10,4,0,7,1,9,0.00,7,Fog,312
2013-1-25,50,47,44,46,44,43,100,96,92,30.20,30.10,29.98,10,4,0,8,1,9,0.30,8,Fog-Rain,341
2013-1-26,48,42,35,45,36,33,92,76,60,30.13,30.04,29.99,10,9,2,21,2,25,0.10,7,Rain,329
2013-1-27,46,40,34,36,34,30,96,77,58,30.23,30.17,30.13,10,9,6,8,2,9,0.09,8,Rain,167
2013-1-28,45,40,35,39,36,33,92,84,76,30.34,30.25,30.14,10,10,9,6,1,8,0.04,8,Rain,228
2013-1-29,48,43,37,40,38,37,100,86,71,30.52,30.46,30.34,10,7,0,7,2,8,0.03,7,Fog-Rain,29
2013-1-30,43,40,36,37,36,34,92,84,76,30.61,30.54,30.47,10,10,7,7,1,8,0.00,8,,8
2013-1-31,42,41,39,37,36,35,86,83,79,30.47,30.41,30.36,10,10,9,7,2,9,0.00,8,,44